Location: Domont
(49.0278°N, 2.3264°E)
Time: 14:33:38
(UTC+00:00)

ZACube-1 - Visible Passes

Search period start: 02 July 2022 00:00
Search period end: 12 July 2022 00:00
Orbit: 581 x 662 km, 97.6° (Epoch: 01 July)

Date Brightness Start Highest point End Pass type
(mag) Time Alt. Az. Time Alt. Az. Time Alt. Az.
02 Jul ? 02:31:54 10° NE 02:34:21 14° E 02:36:48 10° ESE visible
03 Jul ? 02:48:56 10° NE 02:52:21 21° E 02:55:46 10° SE visible
04 Jul ? 03:06:20 10° NNE 03:10:18 30° E 03:14:18 10° SSE visible
07 Jul ? 02:25:11 10° ENE 02:27:09 13° E 02:29:09 10° ESE visible
08 Jul ? 02:42:00 10° NE 02:45:11 19° E 02:48:21 10° SE visible
09 Jul ? 02:59:18 10° NE 03:03:09 27° E 03:07:00 10° SSE visible
10 Jul ? 03:16:49 10° NNE 03:21:05 39° E 03:25:21 10° SSE visible
